Regional Weather Roundup
Issued by NWS

Home | Current Version | Previous Version | Graphics & Text | Print | Product List | Glossary On
Versions: 1 2 3 4 5 6 7 8 9 10 11 12 13 14 15 16 17 18 19 20 21 22 23 24 25 26 27 28 29 30 31 32 33 34 35 36 37 38 39 40 41 42 43 44 45 46 47 48 49 50
000
ASUS43 KMPX 202210
RWRMN
WEATHER ROUNDUP FOR MINNESOTA
NATIONAL WEATHER SERVICE TWIN CITIES/CHANHASSEN MN
400 PM CST TUE FEB 20 2018


NOTE: "FAIR" INDICATES FEW OR NO CLOUDS BELOW 12,000 FEET WITH NO
SIGNIFICANT WEATHER AND/OR OBSTRUCTIONS TO VISIBILITY. N/A MEANS
CURRENT SKY AND/OR WEATHER CONDITIONS ARE NOT AVAILABLE.

MNZ060>063-068>070-202300-
   Twin Cities Metro

CITY           SKY/WX    TMP DP  RH WIND       PRES   REMARKS
TWIN CITIES    FAIR      20  11  68 W15       30.06R WCI   6
ST PAUL        FAIR      20  10  65 W16       30.07R WCI   6
CRYSTAL        FAIR      20   8  60 W13       30.05R WCI   7
BLAINE         PTSUNNY   21  12  68 W15G21    30.03R WCI   8
LAKEVILLE      CLOUDY    18  12  79 W12       30.07R WCI   5
EDEN PRAIRIE   PTSUNNY   20   9  62 W13G23    30.07R WCI   7
SOUTH ST PAUL  CLOUDY    21  12  67 NW9       30.06R WCI  11
LAKE ELMO      CLOUDY    21  14  73 W7        30.05R WCI  13
$$
MNZ001>005-007-008-013>017-022>024-027-028-202300-
   Northwest Minnesota

CITY           SKY/WX    TMP DP  RH WIND       PRES   REMARKS
BEMIDJI        FAIR       9   2  72 W9        30.02R HAZE    WCI  -4
HALLOCK        FAIR      10   1  67 NW7       30.10R WCI   0
ROSEAU         FAIR       9   1  72 W12       30.05R WCI  -6
WARROAD        FAIR      12   3  67 W9        30.03R WCI   0
THIEF RVR FALL FLURRIES   8   1  73 W14       30.10R WCI  -8
CROOKSTON      PTSUNNY   10   5  79 NW12      30.14R HAZE    WCI  -4
FOSSTON        FAIR      10   0  61 W12       30.09R WCI  -4
DETROIT LAKES  FAIR       9   3  78 NW12      30.10R WCI  -6
MOORHEAD       PTSUNNY   10   3  72 NW14      30.16R WCI  -5
PARK RAPIDS    HAZE      11   2  67 W16       30.03R VSB 1   WCI  -6
MAHNOMEN       MOCLDY     7   1  77 NW13      30.10R WCI  -9
$$
MNZ006-009>011-018-025>026-202300-
   North Central Minnesota

CITY           SKY/WX    TMP DP  RH WIND       PRES   REMARKS
BAUDETTE       PTSUNNY    9   2  73 W10       29.99R WCI  -5
FLAG ISLAND    PTSUNNY   10   3  72 NW9       30.00R WCI  -2
INTL FALLS     CLOUDY    11   3  70 W12       29.97R WCI  -3
WASKISH        PTSUNNY   12   7  79 W10       30.01R WCI  -1
BIG FORK       CLOUDY    14   7  73 NW3       29.97R
LONGVILLE      CLOUDY    14   3  62 NW8       30.02R WCI   3
GRAND RAPIDS   CLOUDY    13   5  70 NW13      30.00R WCI  -2
CRANE LAKE     FLURRIES   9   1  72 NW6       29.98R WCI  -1
ORR            CLOUDY    10   1  67 NW9       29.92R WCI  -2
COOK             N/A     10   5  79 W9        29.96R WCI  -2
WALKER         LGT SNOW  12   2  63 NW12      30.02R WCI  -2
$$
MNZ012-019>021-037-202300-
   Northeast Minnesota

CITY           SKY/WX    TMP DP  RH WIND       PRES   REMARKS
DULUTH         CLOUDY    17   8  67 W16       29.92R WCI   2
ELY            FLURRIES   9   3  78 W12       29.92R WCI  -6
HIBBING        CLOUDY    11   4  73 NW13      29.95R WCI  -4
EVELETH        FAIR     N/A N/A N/A W10       29.96R
DULUTH HARBOR  CLOUDY    19  12  73 W9        29.99R WCI   9
TWO HARBORS    FLURRIES  21  12  68 W9        29.92R WCI  11
GRAND MARAIS     N/A     18  10  71 W7        29.93R WCI   9
G MARAIS ARPRT CLOUDY     9   3  78 CALM      29.83R
$$
MNZ029>031-032-039>041-046>048-054>057-064-202300-
   West Central Minnesota

CITY           SKY/WX    TMP DP  RH WIND       PRES   REMARKS
FERGUS FALLS   FAIR       9   3  78 NW17      30.15R WCI -10
MORRIS         CLOUDY    10   3  72 NW17G26   30.15R HAZE    WCI  -7
ALEXANDRIA     FAIR      11   2  67 NW17G24   30.08R WCI  -6
ELBOW LAKE     PTSUNNY    9   4  78 NW20      30.14R HAZE    WCI -10
WADENA         LGT SNOW   9   1  72 W15       30.07R WCI  -8
GLENWOOD       FAIR      10   3  72 NW21G26   30.10R WCI  -9
APPLETON       PTSUNNY   12   3  67 NW16G23   30.19R WCI  -4
BENSON         CLOUDY    12   3  67 N23       30.17R HAZE    WCI  -7
ORTONVILLE     FAIR      12   3  67 NW16G22   30.18R WCI  -4
MADISON        FAIR      16   7  67 NW15      30.20R WCI   1
WILLMAR        CLOUDY    10   5  79 NW18      30.16R WCI  -8
$$
MNZ033>034-036-042>043-049>051-058-059-202300-
   Central Minnesota

CITY           SKY/WX    TMP DP  RH WIND       PRES   REMARKS
ST CLOUD       FAIR      17   7  64 NW17      30.07R WCI   1
SAUK CENTRE    FAIR      13   4  67 NW17      30.08R WCI  -3
PAYNESVILLE    FAIR      14   6  72 NW16G23   30.10R WCI  -2
AITKIN         FAIR      18   3  53 W7        30.00R WCI   8
PINE RIVER     FAIR      16   5  62 NW13      30.05R WCI   2
BRAINERD       CLOUDY    18   5  57 W14       30.03R WCI   4
STAPLES        FAIR      12   1  62 W16       30.05R WCI  -4
LONG PRAIRIE   FAIR      14   5  67 W14       30.07R WCI  -1
LITTLE FALLS   FAIR      18   0  45 W16       30.07R HAZE    WCI   3
LITCHFIELD     FAIR      16   9  73 W14       30.10R WCI   1
BUFFALO        FAIR      18   8  64 W12G20    30.09R WCI   5
MAPLE LAKE     FAIR      19  10  69 W15       30.08R WCI   5
HUTCHINSON     FAIR      15   7  70 W18G26    30.11R WCI  -1
$$
MNZ037-044-045-052-053-202300-
   East Central Minnesota

CITY           SKY/WX    TMP DP  RH WIND       PRES   REMARKS
PRINCETON      CLOUDY    21   9  58 W14G21    30.04R WCI   8
MORA           PTSUNNY   21   9  58 W9        30.03R WCI  11
CAMBRIDGE      FAIR      21   9  58 W13       30.04R WCI   9
RUSH CITY      PTSUNNY   21   9  61 W7        30.02R WCI  12
MOOSE LAKE     FAIR      19   9  63 NW9       29.96R WCI   9
HINCKLEY       FAIR      19  10  68 W8        30.01R WCI   9
CLOQUET        CLOUDY    18   9  68 W9G17     29.94R WCI   6
MCGREGOR       FAIR      19   9  63 W12       30.00R WCI   7
$$
MNZ071>073-080-081-089-090-097-098-202300-
   Southwest Minnesota

CITY           SKY/WX    TMP DP  RH WIND       PRES   REMARKS
MONTEVIDEO     FAIR      16   5  62 N14       30.19R WCI   1
GRANITE FALLS  FAIR      14   7  71 W17       30.19R WCI  -2
CANBY          FAIR      14   5  67 W15G24    30.20R WCI  -1
MARSHALL       FAIR      12   5  73 NW23      30.17R WCI  -7
REDWOOD FALLS  CLOUDY    13   5  70 W18G26    30.15R WCI  -4
OLIVIA         FAIR      14   9  79 NW21G28   30.14R WCI  -4
PIPESTONE      FAIR      10   3  72 NW18      30.14R WCI  -8
WINDOM         PTSUNNY   12  -2  52 CALM      30.13R HAZE
WORTHINGTON    FAIR      13   6  74 NW18      30.14R WCI  -4
JACKSON        PTSUNNY   14   7  73 NW20G26   30.12R WCI  -3
TRACY          FAIR      13   7  76 NW17      30.15R WCI  -4
SLAYTON        FAIR      11   5  76 W20       30.14R WCI  -7
$$
MNZ065>067-074>077-082>085-091>093-202300-
   South Central Minnesota

CITY           SKY/WX    TMP DP  RH WIND       PRES   REMARKS
MANKATO        FLURRIES  13   7  77 W20G30    30.13R WCI  -5
NEW ULM        FAIR      14   7  73 NW18      30.13R WCI  -3
ST JAMES       LGT SNOW  12   9  85 W16G22    30.15R WCI  -4
FAIRMONT       FAIR      13   7  77 NW18      30.14R WCI  -4
GLENCOE        FAIR      16   9  74 W20       30.09R WCI  -1
FARIBAULT      FLURRIES  18  10  73 W10       30.09R WCI   6
OWATONNA       FLURRIES  16  10  79 CALM      30.09R
WASECA         FLURRIES  14   9  79 W14       30.12R WCI  -1
ALBERT LEA     FLURRIES  16   9  73 W9G16     30.08R WCI   4
$$
MNZ078>079-086>088-094>096-202300-
   Southeast Minnesota

CITY           SKY/WX    TMP DP  RH WIND       PRES   REMARKS
ROCHESTER      CLOUDY    19  15  84 W16       30.02R WCI   4
RED WING       LGT SNOW  21  12  68 W14       30.05R WCI   8
STANTON        CLOUDY    20  13  72 W10       30.06R WCI   9
DODGE CENTER   FLURRIES  16  12  86 W12       30.05R WCI   3
WINONA         CLOUDY    23  18  80 NW10G18   30.02R WCI  12
AUSTIN         FLURRIES  18  12  79 W9        30.07R WCI   6
PRESTON        CLOUDY    19  15  83 NW13      30.03R WCI   6
$$
ABBREVIATIONS USED IN REMARKS
   TC - TEMPERATURES IN CELSIUS
  WCI - WIND CHILL INDEX
   HX - HEAT INDEX
  VSB - VISIBILITY
$$




USA.gov is the U.S. government's official web portal to all federal, state and local government web resources and services.